FW0202 Weather Reports


Display with metric or nautical units.
time (UTC)temp
F
wind
direction
speed
MPH
gust
MPH
rain 1hr
in
rain 24hr
in
rain mn
in
humidity
%
barometer
mb
20200401085058 71 0 0.0 2.0 0.00 0.00 0.00 83 1018.8
20200401084637 71 0 0.0 1.0 0.00 0.00 0.00 83 1018.8
20200401084055 71 0 0.0 1.0 0.00 0.00 0.00 83 1018.7
20200401083556 71 0 0.0 2.0 0.00 0.00 0.00 83 1018.6
20200401083229 71 156 0.0 2.0 0.00 0.00 0.00 83 1018.4
20200401082603 71 156 0.0 1.0 0.00 0.00 0.00 83 1018.5
20200401082101 71 0 0.0 1.0 0.00 0.00 0.00 83 1018.4
20200401081657 71 0 0.0 2.0 0.00 0.00 0.00 82 1018.5
20200401081056 71 0 0.0 2.0 0.00 0.00 0.00 82 1018.4
20200401080601 71 157 0.0 1.0 0.00 0.00 0.00 82 1018.4
20200401080136 72 0 0.0 3.0 0.00 0.00 0.00 81 1018.4
20200401075554 72 0 0.0 4.0 0.00 0.00 0.00 81 1018.3
20200401075102 72 0 1.0 4.0 0.00 0.00 0.00 80 1018.2
20200401074900 72 117 1.0 6.0 0.00 0.00 0.00 80 1018.2
20200401074058 73 134 1.0 6.0 0.00 0.00 0.00 80 1018.1
20200401073632 73 148 2.0 6.0 0.00 0.00 0.00 79 1018.2
20200401073335 73 133 1.0 4.0 0.00 0.00 0.00 79 1018.1
20200401072601 73 180 0.0 5.0 0.00 0.00 0.00 79 1018.2
20200401072104 74 103 1.0 5.0 0.00 0.00 0.00 78 1018.1
20200401071724 74 180 1.0 5.0 0.00 0.00 0.00 78 1018.1
20200401071054 74 148 1.0 6.0 0.00 0.00 0.00 77 1018.1
20200401070559 75 121 2.0 6.0 0.00 0.00 0.00 76 1018.2
20200401070346 75 137 1.0 5.0 0.00 0.00 0.00 76 1018.2
20200401065558 75 104 2.0 5.0 0.00 0.00 0.00 77 1018.1
20200401065056 74 139 1.0 6.0 0.00 0.00 0.00 76 1018.1
20200401064608 74 159 2.0 6.0 0.00 0.00 0.00 76 1017.9
20200401064055 75 180 2.0 10.0 0.00 0.00 0.00 76 1017.9
20200401063557 75 162 3.0 10.0 0.00 0.00 0.00 75 1017.8
20200401063150 76 172 1.0 7.0 0.00 0.00 0.00 74 1017.7
20200401062559 75 118 2.0 9.0 0.00 0.00 0.00 76 1017.7
20200401062113 75 153 2.0 9.0 0.00 0.00 0.00 75 1017.5
20200401061708 76 147 3.0 10.0 0.00 0.00 0.00 74 1017.6
20200401061056 76 115 4.0 10.0 0.00 0.00 0.00 72 1017.6
20200401060557 77 140 3.0 8.0 0.00 0.00 0.00 71 1017.5
20200401060214 77 143 2.0 9.0 0.00 0.00 0.00 71 1017.5
20200401055609 78 119 3.0 9.0 0.00 0.00 0.00 68 1017.4
20200401055056 78 122 3.0 7.0 0.00 0.00 0.00 70 1017.4
20200401054705 78 141 3.0 10.0 0.00 0.00 0.00 69 1017.3
20200401054100 78 162 3.0 10.0 0.00 0.00 0.00 68 1017.3
20200401053601 77 180 4.0 10.0 0.00 0.00 0.00 69 1017.3
20200401053206 77 150 4.0 10.0 0.00 0.00 0.00 69 1017.2
20200401052601 78 172 4.0 10.0 0.00 0.00 0.00 67 1017.3
20200401052109 78 166 4.0 8.0 0.00 0.00 0.00 67 1017.3
20200401051716 78 135 3.0 8.0 0.00 0.00 0.00 68 1017.2
20200401051059 76 164 2.0 10.0 0.00 0.00 0.00 70 1017.3
20200401050557 77 116 2.0 12.0 0.00 0.00 0.00 68 1017.3
20200401050244 78 172 6.0 14.0 0.00 0.00 0.00 65 1017.2
20200401045557 79 202 4.0 14.0 0.00 0.00 0.00 67 1017.2
20200401045057 78 147 2.0 8.0 0.00 0.00 0.00 64 1017.2
20200401044641 77 116 4.0 9.0 0.00 0.00 0.00 65 1017.2
20200401044101 78 133 3.0 9.0 0.00 0.00 0.00 64 1017.3
20200401043557 79 156 2.0 9.0 0.00 0.00 0.00 63 1017.2
20200401043148 79 131 4.0 12.0 0.00 0.00 0.00 64 1017.3
20200401042554 79 139 3.0 12.0 0.00 0.00 0.00 64 1017.3
20200401042057 78 94 3.0 9.0 0.00 0.00 0.00 63 1017.3
20200401041644 79 130 4.0 9.0 0.00 0.00 0.00 62 1017.4
20200401041057 79 140 4.0 11.0 0.00 0.00 0.00 66 1017.3
20200401040557 79 79 3.0 11.0 0.00 0.00 0.00 67 1017.3
20200401040152 77 129 2.0 8.0 0.00 0.00 0.00 73 1017.3
20200401035604 76 161 3.0 8.0 0.00 0.00 0.00 71 1017.3
20200401035103 76 162 4.0 8.0 0.00 0.00 0.00 71 1017.4
20200401034724 77 136 3.0 7.0 0.00 0.00 0.00 70 1017.4
20200401034056 78 149 2.0 6.0 0.00 0.00 0.00 68 1017.4
20200401033601 79 92 1.0 4.0 0.00 0.00 0.00 69 1017.5
20200401033125 77 147 0.0 3.0 0.00 0.00 0.00 76 1017.6
20200401032556 76 131 1.0 5.0 0.00 0.00 0.00 72 1017.7
20200401032105 76 185 1.0 7.0 0.00 0.00 0.00 73 1017.8
20200401031747 76 136 2.0 15.0 0.00 0.00 0.00 72 1017.9
20200401031055 77 195 5.0 15.0 0.00 0.00 0.00 71 1017.9
20200401030557 77 151 3.0 15.0 0.00 0.00 0.00 74 1017.7
20200401030135 76 139 3.0 10.0 0.00 0.00 0.00 71 1017.8
20200401025557 77 139 3.0 10.0 0.00 0.00 0.00 72 1017.9
20200401025115 78 180 3.0 9.0 0.00 0.00 0.00 71 1017.9
20200401024618 79 168 2.0 8.0 0.00 0.00 0.00 72 1018.1
20200401024110 78 166 2.0 5.0 0.00 0.00 0.00 73 1018.0
20200401023557 76 220 1.0 4.0 0.00 0.00 0.00 72 1018.1
20200401023132 76 199 0.0 4.0 0.00 0.00 0.00 72 1018.3
20200401022602 76 0 0.0 6.0 0.00 0.00 0.00 73 1018.3
20200401022110 76 195 1.0 6.0 0.00 0.00 0.00 72 1018.5
20200401021703 77 154 1.0 7.0 0.00 0.00 0.00 73 1018.4
20200401021139 78 0 1.0 7.0 0.00 0.00 0.00 70 1018.4
20200401020603 79 94 2.0 8.0 0.00 0.00 0.00 68 1018.4
20200401020200 78 0 2.0 8.0 0.00 0.00 0.00 72 1018.6
20200401015603 77 185 2.0 6.0 0.00 0.00 0.00 76 1018.6
20200401015106 77 135 3.0 8.0 0.00 0.00 0.00 72 1018.7
20200401014724 78 136 2.0 8.0 0.00 0.00 0.00 69 1018.8
20200401014114 79 224 1.0 7.0 0.00 0.00 0.00 72 1018.8
20200401013557 79 143 2.0 7.0 0.00 0.00 0.00 71 1019.0
20200401013215 79 162 2.0 6.0 0.00 0.00 0.00 71 1019.1
20200401012559 78 115 2.0 5.0 0.00 0.00 0.00 74 1019.1
20200401012104 79 0 2.0 5.0 0.00 0.00 0.00 73 1019.3
20200401011642 79 0 1.0 7.0 0.00 0.00 0.00 74 1019.3
20200401011100 78 189 2.0 7.0 0.00 0.00 0.00 73 1019.3
20200401010556 78 204 1.0 5.0 0.00 0.00 0.00 76 1019.5
20200401010138 77 131 2.0 5.0 0.00 0.00 0.00 76 1019.4
20200401005558 77 128 1.0 8.0 0.00 0.00 0.00 78 1019.6
20200401005056 77 122 2.0 8.0 0.00 0.00 0.00 77 1019.5
20200401004651 77 205 2.0 5.0 0.00 0.00 0.00 77 1019.6
20200401004123 75 0 1.0 6.0 0.00 0.00 0.00 80 1019.7
20200401003559 76 131 1.0 6.0 0.00 0.00 0.00 78 1019.8
20200401003247 75 208 2.0 5.0 0.00 0.00 0.00 83 1019.8
20200401002600 74 172 0.0 3.0 0.00 0.00 0.00 82 1019.8
20200401002108 75 112 0.0 4.0 0.00 0.00 0.00 81 1019.9
20200401001647 76 276 1.0 7.0 0.00 0.00 0.00 79 1019.9
20200401001104 76 180 1.0 7.0 0.00 0.00 0.00 79 1019.9
20200401000616 76 126 1.0 6.0 0.00 0.00 0.00 80 1019.8
20200401000059 76 139 1.0 6.0 0.00 0.00 0.00 84 1019.9
20200331235602 76 149 2.0 6.0 0.00 0.00 0.00 83 1020.0
20200331235059 75 138 2.0 6.0 0.00 0.00 0.00 84 1020.0
20200331234635 75 312 1.0 7.0 0.00 0.00 0.00 84 1020.0
20200331234102 73 124 2.0 7.0 0.00 0.00 0.00 85 1020.0
20200331233614 73 156 2.0 5.0 0.00 0.00 0.00 84 1020.1
20200331233222 74 220 2.0 4.0 0.00 0.00 0.00 86 1020.0
20200331232558 74 58 1.0 3.0 0.00 0.00 0.00 88 1020.0
20200331232133 73 0 0.0 2.0 0.00 0.00 0.00 90 1020.1
20200331231901 72 134 1.0 2.0 0.00 0.00 0.00 86 1020.1
20200331231058 72 131 0.0 3.0 0.00 0.00 0.00 86 1020.2
20200331230557 72 0 1.0 7.0 0.00 0.00 0.00 85 1020.2
20200331230201 72 146 0.0 7.0 0.00 0.00 0.00 86 1020.1
20200331225616 71 306 2.0 4.0 0.00 0.00 0.00 88 1020.1
20200331225058 71 0 1.0 3.0 0.00 0.00 0.00 88 1020.0
20200331224711 71 141 1.0 3.0 0.00 0.00 0.00 88 1020.1
20200331224058 71 310 0.0 3.0 0.00 0.00 0.00 91 1020.0
20200331223620 71 122 1.0 3.0 0.00 0.00 0.00 92 1020.0
20200331223121 70 0 1.0 3.0 0.00 0.00 0.00 92 1019.9
20200331222557 70 0 0.0 4.0 0.00 0.00 0.00 94 1020.0
20200331222059 69 162 0.0 4.0 0.00 0.00 0.00 94 1020.0
20200331221743 69 162 0.0 3.0 0.00 0.00 0.00 95 1020.0
20200331221056 68 0 1.0 3.0 0.00 0.00 0.00 95 1020.0
20200331220558 69 289 0.0 3.0 0.00 0.00 0.00 96 1020.1
20200331220209 69 289 1.0 3.0 0.00 0.00 0.00 98 1019.9
20200331215607 68 0 0.0 3.0 0.00 0.00 0.00 97 1019.8
20200331215104 68 327 0.0 3.0 0.00 0.00 0.00 98 1019.9
20200331214626 68 327 0.0 2.0 0.00 0.00 0.00 98 1019.7
20200331214058 67 0 0.0 2.0 0.00 0.00 0.00 98 1019.8
20200331213601 67 330 0.0 2.0 0.00 0.00 0.00 98 1019.7
20200331213139 67 0 0.0 3.0 0.00 0.00 0.00 98 1019.7
20200331212609 67 329 1.0 3.0 0.00 0.00 0.00 98 1019.6
20200331212059 67 352 1.0 2.0 0.00 0.00 0.00 98 1019.5
20200331211654 66 353 0.0 2.0 0.00 0.00 0.00 98 1019.5
20200331211059 66 353 1.0 2.0 0.00 0.00 0.00 98 1019.5
20200331210608 66 353 1.0 2.0 0.00 0.00 0.00 98 1019.5
20200331210150 66 353 0.0 2.0 0.00 0.00 0.00 98 1019.4
20200331205557 65 353 0.0 2.0 0.00 0.00 0.00 98 1019.4
20200331205059 65 0 0.0 3.0 0.00 0.00 0.00 98 1019.2
20200331204626 65 353 0.0 3.0 0.00 0.00 0.00 98 1019.1
20200331204105 65 353 1.0 3.0 0.00 0.00 0.00 98 1019.1
20200331203559 65 353 0.0 1.0 0.00 0.00 0.00 98 1019.1
20200331203155 64 353 0.0 0.0 0.00 0.00 0.00 98 1019.1
20200331202600 64 0 0.0 0.0 0.00 0.00 0.00 98 1019.1
20200331202059 64 0 0.0 0.0 0.00 0.00 0.00 98 1019.0
20200331201630 64 0 0.0 0.0 0.00 0.00 0.00 98 1018.9
20200331201104 64 0 0.0 1.0 0.00 0.00 0.00 98 1018.9
20200331200558 64 0 0.0 1.0 0.00 0.00 0.00 98 1018.8
20200331200149 64 353 0.0 1.0 0.00 0.00 0.00 98 1018.8
20200331195600 64 0 0.0 2.0 0.00 0.00 0.00 98 1018.7
20200331195058 64 0 0.0 2.0 0.00 0.00 0.00 98 1018.7
20200331194619 65 353 0.0 2.0 0.00 0.00 0.00 98 1018.7
20200331194104 64 0 0.0 1.0 0.00 0.00 0.00 98 1018.8
20200331193558 64 0 0.0 0.0 0.00 0.00 0.00 98 1018.7
20200331193149 64 0 0.0 2.0 0.00 0.00 0.00 98 1018.6
20200331192559 64 0 0.0 2.0 0.00 0.00 0.00 98 1018.6
20200331192059 64 353 0.0 2.0 0.00 0.00 0.00 98 1018.4
20200331191749 64 0 0.0 2.0 0.00 0.00 0.00 98 1018.5
20200331191107 64 353 0.0 2.0 0.00 0.00 0.00 98 1018.5
20200331190558 64 0 0.0 2.0 0.00 0.00 0.00 98 1018.5
20200331190129 64 353 0.0 2.0 0.00 0.00 0.00 98 1018.5
20200331185625 64 353 0.0 2.0 0.00 0.00 0.00 98 1018.4
20200331185102 64 353 1.0 2.0 0.00 0.00 0.00 98 1018.4
20200331184626 65 353 0.0 0.0 0.00 0.00 0.00 98 1018.3
20200331184101 65 0 0.0 0.0 0.00 0.00 0.00 98 1018.2
20200331183614 65 0 0.0 0.0 0.00 0.00 0.00 98 1018.2
20200331183428 64 0 0.0 1.0 0.00 0.00 0.00 98 1018.1
20200331182602 64 0 0.0 1.0 0.00 0.00 0.00 98 1017.9
20200331182124 64 0 0.0 1.0 0.00 0.00 0.00 97 1018.0
20200331181706 65 0 0.0 0.0 0.00 0.00 0.00 98 1017.9
20200331181102 65 0 0.0 0.0 0.00 0.00 0.00 98 1018.1
20200331180558 65 0 0.0 0.0 0.00 0.00 0.00 98 1017.9
20200331180211 65 0 0.0 2.0 0.00 0.00 0.00 98 1017.9
20200331175558 65 0 0.0 2.0 0.00 0.00 0.00 98 1017.9
20200331175104 65 353 0.0 1.0 0.00 0.00 0.00 98 1017.9
20200331174622 65 0 0.0 1.0 0.00 0.00 0.00 98 1017.9
20200331174056 65 353 0.0 1.0 0.00 0.00 0.00 98 1017.7
20200331173609 65 353 0.0 0.0 0.00 0.00 0.00 98 1017.9
20200331173137 65 0 0.0 0.0 0.00 0.00 0.00 98 1017.8
20200331172558 65 0 0.0 0.0 0.00 0.00 0.00 98 1017.7
20200331172057 65 0 0.0 0.0 0.00 0.00 0.00 98 1017.7
20200331171659 65 0 0.0 1.0 0.00 0.00 0.00 98 1017.7
20200331171103 65 0 0.0 1.0 0.00 0.00 0.00 98 1017.7
20200331170555 64 0 0.0 1.0 0.00 0.00 0.00 98 1017.7
20200331170131 64 0 0.0 2.0 0.00 0.00 0.00 98 1017.7
20200331165558 65 0 0.0 2.0 0.00 0.00 0.00 98 1017.6
20200331165058 64 353 0.0 1.0 0.00 0.00 0.00 97 1017.6
20200331164638 64 0 0.0 1.0 0.00 0.00 0.00 97 1017.7
20200331164059 64 0 0.0 1.0 0.00 0.00 0.00 97 1017.6
20200331163602 65 353 0.0 1.0 0.00 0.00 0.00 97 1017.6
20200331163213 65 0 0.0 1.0 0.00 0.00 0.00 97 1017.4
20200331162555 65 0 0.0 1.0 0.00 0.00 0.00 97 1017.6
20200331162138 65 353 0.0 1.0 0.00 0.00 0.00 98 1017.7
20200331161702 65 0 0.0 0.0 0.00 0.00 0.00 97 1017.7
20200331161104 65 0 0.0 0.0 0.00 0.00 0.00 98 1017.7
20200331160559 65 0 0.0 1.0 0.00 0.00 0.00 97 1017.7
20200331160123 65 0 0.0 1.0 0.00 0.00 0.00 97 1017.6
20200331155557 65 0 0.0 0.0 0.00 0.00 0.00 97 1017.7
20200331155100 65 0 0.0 0.0 0.00 0.00 0.00 97 1017.8
20200331154705 65 0 0.0 1.0 0.00 0.00 0.00 97 1017.9
20200331154057 65 0 0.0 1.0 0.00 0.00 0.00 97 1018.0
20200331153556 66 0 0.0 1.0 0.00 0.00 0.00 97 1018.0
20200331153133 66 0 0.0 2.0 0.00 0.00 0.00 97 1018.1
20200331152601 66 0 0.0 2.0 0.00 0.00 0.00 97 1018.0
20200331152102 66 353 0.0 2.0 0.00 0.00 0.00 97 1017.9
20200331151557 65 0 0.0 2.0 0.00 0.00 0.00 97 1018.1
20200331151059 65 0 0.0 1.0 0.00 0.00 0.00 97 1018.0
20200331150601 66 0 0.0 0.0 0.00 0.00 0.00 97 1018.0
20200331150306 66 0 0.0 0.0 0.00 0.00 0.00 97 1018.1
20200331145558 66 0 0.0 1.0 0.00 0.00 0.00 97 1018.0
20200331145057 66 0 0.0 1.0 0.00 0.00 0.00 97 1018.1
20200331144619 66 0 0.0 1.0 0.00 0.00 0.00 97 1018.1
20200331144102 66 0 0.0 1.0 0.00 0.00 0.00 97 1018.1
20200331143558 66 0 0.0 1.0 0.00 0.00 0.00 96 1018.3
20200331143149 65 0 0.0 0.0 0.00 0.00 0.00 96 1018.1
20200331142556 66 0 0.0 0.0 0.00 0.00 0.00 96 1018.1
20200331142059 66 0 0.0 0.0 0.00 0.00 0.00 95 1018.1
20200331141715 66 0 0.0 0.0 0.00 0.00 0.00 96 1018.1
20200331141058 67 0 0.0 0.0 0.00 0.00 0.00 96 1018.3
20200331140619 67 0 0.0 0.0 0.00 0.00 0.00 96 1018.2
20200331140242 67 0 0.0 0.0 0.00 0.00 0.00 96 1018.2
20200331135557 67 0 0.0 0.0 0.00 0.00 0.00 96 1018.2
20200331135057 67 0 0.0 0.0 0.00 0.00 0.00 96 1018.3
20200331134618 67 0 0.0 0.0 0.00 0.00 0.00 96 1018.2
20200331134057 67 0 0.0 0.0 0.00 0.00 0.00 96 1018.2
20200331133606 67 0 0.0 1.0 0.00 0.00 0.00 96 1018.2
20200331133130 67 0 0.0 1.0 0.00 0.00 0.00 96 1018.3
20200331132557 67 0 0.0 0.0 0.00 0.00 0.00 96 1018.3
20200331132105 66 0 0.0 0.0 0.00 0.00 0.00 96 1018.3
20200331131620 66 0 0.0 1.0 0.00 0.00 0.00 96 1018.2
20200331131102 66 0 0.0 2.0 0.00 0.00 0.00 96 1018.3
20200331130558 66 0 1.0 2.0 0.00 0.00 0.00 96 1018.4
20200331130118 66 353 1.0 2.0 0.00 0.00 0.00 95 1018.4
20200331125559 67 353 0.0 1.0 0.00 0.00 0.00 95 1018.4
20200331125059 67 0 0.0 0.0 0.00 0.00 0.00 95 1018.3
20200331124637 67 0 0.0 0.0 0.00 0.00 0.00 95 1018.4
20200331124105 67 0 0.0 0.0 0.00 0.00 0.00 96 1018.5
20200331123555 67 0 0.0 0.0 0.00 0.00 0.00 96 1018.5
20200331123221 67 0 0.0 0.0 0.00 0.00 0.00 95 1018.5
20200331122557 67 0 0.0 0.0 0.00 0.00 0.00 96 1018.6
20200331122058 66 0 0.0 0.0 0.00 0.00 0.00 95 1018.4
20200331121710 67 0 0.0 0.0 0.00 0.00 0.00 94 1018.4
20200331121101 67 0 0.0 0.0 0.00 0.00 0.00 94 1018.6
20200331120558 67 0 0.0 1.0 0.00 0.00 0.00 94 1018.5
20200331120140 67 0 0.0 2.0 0.00 0.00 0.00 94 1018.5
20200331115610 67 0 0.0 2.0 0.00 0.00 0.00 94 1018.6
20200331115058 67 353 0.0 2.0 0.00 0.00 0.00 95 1018.6
20200331114705 67 353 1.0 2.0 0.00 0.00 0.00 94 1018.6
20200331114057 67 353 0.0 2.0 0.00 0.00 0.00 94 1018.7
20200331113555 67 353 1.0 2.0 0.00 0.00 0.00 93 1018.6
20200331113119 68 353 0.0 1.0 0.00 0.00 0.00 92 1018.7
20200331112605 68 0 0.0 1.0 0.00 0.00 0.00 92 1018.7
20200331112119 68 0 0.0 2.0 0.00 0.00 0.00 92 1018.7
20200331111636 69 0 0.0 2.0 0.00 0.00 0.00 92 1018.6
20200331111056 68 353 0.0 1.0 0.00 0.00 0.00 93 1018.6
20200331110558 68 0 0.0 0.0 0.00 0.00 0.00 92 1018.7
20200331110140 68 0 0.0 0.0 0.00 0.00 0.00 92 1018.7
20200331105556 68 0 0.0 0.0 0.00 0.00 0.00 92 1018.6
20200331105055 68 0 0.0 0.0 0.00 0.00 0.00 92 1018.5
20200331104847 68 0 0.0 1.0 0.00 0.00 0.00 92 1018.5
20200331104059 68 0 0.0 2.0 0.00 0.00 0.00 91 1018.5
20200331103606 69 0 0.0 2.0 0.00 0.00 0.00 91 1018.5
20200331103114 69 353 1.0 2.0 0.00 0.00 0.00 91 1018.4
20200331102555 69 0 0.0 2.0 0.00 0.00 0.00 90 1018.4
20200331102058 69 353 0.0 2.0 0.00 0.00 0.00 90 1018.3
20200331101638 69 32 0.0 1.0 0.00 0.00 0.00 90 1018.3
20200331101109 69 0 0.0 2.0 0.00 0.00 0.00 90 1018.3
20200331100600 69 0 0.0 2.0 0.00 0.00 0.00 90 1018.3
20200331100256 70 49 0.0 2.0 0.00 0.00 0.00 89 1018.2
20200331095628 70 49 0.0 2.0 0.00 0.00 0.00 89 1018.2
20200331095055 69 49 0.0 2.0 0.00 0.00 0.00 90 1018.2
20200331094558 69 110 0.0 1.0 0.00 0.00 0.00 91 1018.1
20200331094056 69 0 0.0 1.0 0.00 0.00 0.00 91 1018.1
20200331093558 69 0 0.0 0.0 0.00 0.00 0.00 92 1018.1
20200331093201 69 0 0.0 0.0 0.00 0.00 0.00 91 1018.0
20200331092607 69 0 0.0 0.0 0.00 0.00 0.00 90 1018.0
20200331091057 70 0 0.0 2.0 0.00 0.00 0.00 89 1017.7
20200331090624 69 151 0.0 2.0 0.00 0.00 0.00 90 1017.6
20200331090137 69 151 0.0 2.0 0.00 0.00 0.00 89 1017.5
20200331085558 70 0 0.0 2.0 0.00 0.00 0.00 88 1017.5